Location: Angwan Shehu
(11.2514°N, 7.4613°E)
Time: 01:57:53
(UTC+00:00)

N. Korean satellite - Pass Details

Date: 13 March 2021
Orbit: 453 x 499 km, 97.2° (Epoch: 11 April)

Event Time Altitude Azimuth Distance (km) Brightness Sun altitude
Rises 04:11:39 0° 25° (NNE) 2,566 10.6 -22.1°
Reaches altitude 10° 04:13:51 10° 34° (NE) 1,690 9.7 -21.6°
Maximum altitude 04:17:10 33° 100° (E) 851 8.4 -20.8°
Drops below altitude 10° 04:20:29 10° 165° (SSE) 1,697 9.5 -20.0°
Sets 04:22:42 0° 175° (S) 2,580 10.3 -19.4°
